Theta_e
345 345 343 341 339 336 335 335 335 335 335 336 337 337 337 337 337 335 333 331 324 314 314 315 316 315 315 314 313 312 312 312 312 312 310 310 310 310 310 309 309 309 310 309 312 313 318 327 329 328 328 329 331 331 331 331 332 332 333 333 335 335 336 336 336 337 337 337 337 337 337 337 336 336 335 335 335 335 335 334 334 335 335 335 334
344 342 340 338 336 335 334 334 334 334 335 335 337 338 338 338 337 336 333 332 327 316 313 314 315 315 315 314 313 313 312 313 312 312 311 311 310 310 310 309 309 309 310 310 310 311 314 322 327 329 331 330 332 332 331 331 331 332 332 333 335 335 336 336 336 336 336 337 337 338 338 338 337 336 336 336 335 336 336 335 334 334 335 335 334
343 340 338 336 335 334 333 332 332 333 334 335 337 338 338 338 337 336 334 333 329 320 314 313 314 315 315 315 314 314 313 313 312 312 311 311 310 310 310 309 309 309 309 309 310 310 312 318 324 329 331 331 331 331 330 330 331 331 331 332 333 334 335 336 336 336 336 336 337 337 338 337 337 337 337 336 335 336 335 334 333 333 334 334 333
343 339 337 335 334 333 332 332 331 331 332 335 337 339 339 338 338 336 334 333 331 325 318 313 313 314 315 315 315 314 314 313 312 312 312 312 311 310 310 310 309 309 309 309 310 310 311 314 319 325 329 331 331 329 328 328 329 329 329 330 331 333 333 334 335 335 335 335 335 336 336 336 336 335 335 334 333 332 332 331 330 330 329 329 328
343 339 337 335 334 333 332 331 330 330 332 335 337 339 339 339 338 336 335 333 332 330 324 318 314 313 314 315 315 314 314 313 313 312 312 312 311 311 311 310 310 309 308 309 309 310 311 313 316 320 327 329 329 327 327 328 329 329 330 331 331 332 333 333 334 333 333 332 332 332 333 331 330 330 329 328 327 325 325 324 325 326 325 323 322
344 340 337 335 333 332 332 331 329 329 331 335 337 339 340 339 339 337 335 333 333 332 330 325 318 313 313 314 314 314 314 313 313 312 312 312 311 311 310 310 310 309 312 317 318 315 312 312 315 319 324 327 326 326 327 329 329 330 331 331 332 332 333 334 335 334 332 331 328 329 332 331 325 325 324 322 321 319 317 317 317 319 319 317 316
343 340 337 335 333 332 331 329 328 329 331 335 338 340 341 340 339 338 335 334 333 333 332 330 325 317 313 314 313 314 313 313 313 312 312 312 312 311 311 311 309 312 321 327 328 326 319 312 314 318 322 325 325 326 328 329 330 331 331 332 332 332 333 333 334 334 334 332 327 327 331 330 324 322 323 319 317 315 312 312 312 312 312 312 312
341 339 337 335 333 331 330 327 326 328 332 336 338 340 341 341 339 338 336 333 333 333 333 332 331 325 317 313 313 314 313 314 314 312 312 312 313 312 311 310 310 319 328 330 330 328 321 311 312 316 320 323 324 327 329 330 331 331 331 331 331 332 333 333 332 331 333 330 325 326 326 326 321 318 318 313 312 311 309 310 309 309 308 309 309
338 338 336 334 333 331 328 325 324 326 331 336 338 340 341 341 340 339 336 333 333 333 333 332 332 330 324 317 313 313 314 314 314 313 312 313 314 312 311 311 314 321 326 329 328 322 314 309 311 313 318 322 324 327 328 330 330 331 331 331 332 333 333 332 332 331 331 328 325 324 320 319 316 312 313 310 311 310 309 309 309 309 309 309 309
337 337 335 333 332 329 325 323 323 326 331 336 338 340 341 341 340 340 337 333 333 333 333 333 332 332 330 324 317 314 314 314 315 314 311 314 315 313 313 313 317 322 325 327 324 316 310 309 310 311 316 321 324 326 328 329 330 330 330 330 330 331 331 331 332 331 331 329 327 322 315 313 311 309 312 312 312 311 309 310 310 311 311 310 309
337 337 334 331 330 326 323 321 322 325 331 336 338 340 341 341 340 340 338 334 332 333 333 333 333 332 332 329 324 318 315 314 315 315 312 314 316 316 315 317 321 324 327 327 324 319 312 308 310 310 313 318 322 324 325 328 329 330 330 330 330 329 329 329 329 330 330 329 326 320 313 311 310 309 312 313 311 310 310 310 310 310 310 309 309
338 336 332 329 327 323 321 320 322 326 333 337 339 340 341 341 341 340 339 335 332 334 333 334 333 332 332 330 327 322 317 314 314 315 314 315 316 319 320 321 323 325 327 326 323 320 312 307 309 309 311 316 319 320 323 328 331 332 332 332 332 330 330 328 327 327 326 325 322 316 312 310 309 309 313 313 309 309 311 312 310 309 309 308 310
341 337 330 328 325 322 320 321 324 329 335 337 339 340 340 341 340 340 339 335 332 334 334 334 333 332 331 328 326 324 320 315 314 315 316 319 321 323 324 325 326 327 329 325 321 317 310 308 309 309 311 314 317 321 328 332 333 333 333 333 332 332 331 329 327 325 321 319 315 312 310 310 310 310 312 311 309 309 311 311 309 308 309 309 310
342 337 328 326 323 321 321 322 327 331 334 336 338 339 339 340 340 340 339 335 332 334 334 334 334 331 329 327 326 325 322 316 315 315 317 324 327 329 329 329 330 329 327 323 319 316 312 309 308 310 311 314 319 326 331 332 332 332 332 332 331 331 331 330 330 324 317 313 311 310 310 310 310 310 310 309 309 309 309 310 309 309 309 310 310
342 337 326 325 322 323 324 324 329 333 335 337 338 339 339 339 339 340 339 335 333 335 335 334 333 329 328 328 328 330 325 318 319 317 319 329 332 333 334 332 331 328 324 322 318 317 315 312 309 310 313 317 322 328 331 331 331 331 332 332 332 331 330 330 329 322 313 311 310 310 310 310 310 310 309 309 309 309 309 310 309 308 308 309 309
342 336 325 324 322 324 328 327 329 332 334 336 336 337 338 338 338 339 339 336 334 335 335 335 332 328 329 331 333 334 326 319 321 322 323 331 334 335 336 333 331 326 323 321 319 318 316 314 311 310 314 318 323 328 330 330 330 330 330 330 330 329 327 326 323 316 312 310 309 310 309 309 310 309 309 310 310 309 309 309 309 308 308 308 308
342 337 324 323 322 322 329 328 327 329 331 333 335 335 336 337 337 338 338 336 335 336 335 334 331 330 332 334 335 333 326 320 321 326 329 331 334 336 336 333 329 326 323 322 320 319 318 317 315 311 312 317 324 328 330 330 330 330 331 330 329 328 326 324 320 315 311 310 309 309 309 309 309 310 310 310 310 309 308 308 308 308 308 308 308
343 338 324 323 324 323 327 324 324 327 328 330 332 333 334 335 336 336 337 336 336 336 335 333 331 332 334 335 336 331 328 328 322 323 329 330 334 336 336 331 329 327 324 323 321 321 320 319 317 314 311 315 323 327 329 331 331 332 333 333 332 331 330 328 325 318 311 309 309 309 310 310 309 309 309 309 309 308 308 308 308 308 308 308 308
343 335 324 325 325 323 324 322 325 328 327 327 328 330 331 332 332 334 335 335 336 335 333 332 332 334 336 335 335 332 331 334 328 322 324 327 332 335 333 330 329 328 325 324 323 323 323 322 320 317 313 314 320 327 329 331 332 332 332 332 332 331 331 329 327 320 311 308 308 309 309 309 309 308 308 308 308 308 308 308 308 308 308 308 308
342 331 324 326 325 324 322 324 329 330 329 329 327 327 328 329 330 331 332 334 334 332 332 332 333 334 335 335 334 332 333 334 332 327 324 322 325 330 330 328 328 328 326 326 325 325 326 325 323 321 316 313 317 324 329 330 331 331 331 332 332 331 330 329 328 322 311 307 308 308 308 308 308 308 308 308 308 308 308 307 307 307 307 307 307
339 328 324 326 325 325 324 326 330 330 330 330 327 324 325 327 329 329 331 333 332 331 331 332 333 334 335 335 333 331 333 333 332 331 328 322 319 323 326 326 326 326 326 327 326 326 327 326 325 323 319 315 316 322 328 331 331 331 331 331 331 330 330 329 329 324 312 306 307 307 307 307 307 307 307 307 307 307 306 307 306 306 306 307 307
339 330 324 326 326 325 326 328 329 328 328 328 326 324 325 325 326 328 330 331 331 331 332 333 333 335 335 334 332 331 331 332 332 332 330 326 322 322 323 323 322 322 325 326 326 326 327 326 325 323 321 317 318 322 327 330 330 331 331 331 330 328 329 329 327 324 315 308 308 307 307 307 306 306 306 306 306 306 305 305 305 306 306 306 306
341 335 326 325 328 327 328 328 328 329 329 327 324 323 323 323 325 328 329 330 330 330 331 332 332 334 334 333 332 332 331 331 332 332 331 330 330 327 326 324 321 319 322 326 326 326 326 325 324 324 322 320 320 322 325 328 330 331 332 332 331 329 330 329 326 325 320 312 308 309 309 308 307 306 306 306 305 305 305 305 305 305 305 305 305
342 340 331 327 329 328 328 330 330 331 332 331 325 322 321 322 325 328 331 330 329 331 330 329 331 332 332 332 331 331 332 332 332 333 332 331 331 330 328 327 323 319 320 324 326 325 325 324 323 323 323 323 322 322 323 327 329 330 332 332 331 330 330 329 326 325 323 315 309 311 312 312 311 309 307 306 306 306 305 305 305 305 305 305 304
341 341 337 334 332 329 330 332 333 332 332 333 329 325 324 322 323 326 329 329 328 330 330 329 330 331 332 331 329 330 333 333 333 333 333 331 329 328 327 327 326 322 319 322 326 325 324 324 323 323 323 324 323 322 322 326 329 329 331 332 331 331 330 330 328 326 324 317 314 314 314 315 314 312 310 308 307 306 306 305 305 305 305 305 305
342 341 340 338 335 332 332 333 334 333 333 333 332 331 330 326 323 326 326 326 326 325 326 328 330 330 332 331 328 330 332 333 333 333 334 331 328 328 329 327 325 321 318 320 325 326 325 324 323 323 323 324 326 325 324 326 329 330 332 333 332 332 331 330 330 328 324 321 320 320 318 318 317 315 313 310 308 307 306 306 305 305 306 306 306
342 341 340 339 338 335 333 334 335 335 334 333 333 333 333 330 326 327 327 326 325 322 323 327 330 330 331 331 329 331 332 332 333 333 333 330 328 329 328 325 321 318 316 317 323 326 326 325 323 323 324 328 330 329 328 326 328 331 332 332 332 332 332 332 331 329 324 324 324 324 323 322 320 318 315 312 310 308 307 306 306 307 308 309 309
342 341 340 339 339 338 335 335 336 336 336 334 334 333 334 333 329 328 328 328 327 325 325 326 329 330 330 330 330 331 331 332 333 331 332 329 328 330 325 321 321 319 316 316 321 326 327 325 323 324 327 330 331 330 330 327 327 332 333 332 332 332 332 332 331 328 324 324 325 325 325 324 321 318 316 313 310 308 306 306 308 310 312 313 313
341 341 339 339 339 338 337 337 337 337 335 334 334 334 334 334 332 330 329 329 329 329 328 327 328 329 330 329 328 329 330 332 332 331 331 329 329 330 326 323 323 321 321 319 320 324 326 326 325 325 327 328 329 330 331 329 328 332 332 332 332 331 332 331 330 328 325 324 325 324 324 322 319 316 314 312 309 307 307 308 312 315 317 318 318
340 341 339 339 339 338 339 338 338 336 334 334 334 335 335 334 332 332 331 331 331 331 330 329 329 330 330 329 327 328 329 331 332 331 330 330 330 331 330 327 325 324 327 325 323 325 324 324 326 327 329 328 329 330 331 330 328 330 332 331 331 331 331 329 327 329 327 325 324 323 322 319 314 313 311 309 308 308 309 312 317 320 321 321 322
340 341 340 340 339 338 339 339 337 336 334 335 334 334 335 334 333 333 333 333 332 332 331 331 331 331 331 330 329 327 328 331 332 331 330 330 331 332 332 331 329 327 328 330 329 329 327 326 329 330 331 331 329 329 331 331 329 329 330 330 330 330 330 327 325 329 329 326 324 321 318 315 312 312 311 311 311 311 313 317 320 322 323 324 324
340 340 340 340 339 339 339 338 337 336 335 335 334 335 336 335 334 334 333 333 333 333 332 331 331 331 331 330 330 328 328 331 332 331 330 331 332 332 332 331 332 330 328 330 331 331 330 329 331 332 331 331 330 330 331 331 329 329 330 330 330 329 328 326 325 328 329 328 324 319 316 314 313 313 313 313 313 314 319 323 324 325 326 326 326
341 341 339 338 339 339 338 338 337 336 336 335 334 335 336 336 335 334 334 333 333 333 332 331 331 331 332 331 331 329 329 331 331 331 330 331 331 331 331 330 331 330 327 329 332 332 331 330 332 332 331 331 331 331 331 331 330 329 330 330 329 328 328 328 326 327 329 328 323 319 317 316 315 315 316 316 317 319 324 326 327 327 327 327 327
341 341 340 338 338 338 338 337 337 337 336 335 335 336 336 335 334 334 334 334 333 333 333 332 332 332 332 332 332 330 329 331 331 331 331 331 330 330 330 328 328 328 326 327 331 332 331 331 332 331 331 331 330 331 331 330 330 330 329 330 329 328 328 329 329 328 329 329 326 323 320 319 319 320 321 322 323 324 326 327 326 326 326 326 326
340 340 340 339 337 337 337 336 337 337 336 336 336 336 334 332 332 334 334 334 333 333 333 332 332 331 331 332 332 331 330 331 331 331 331 330 330 329 328 326 326 327 326 325 328 330 330 331 332 331 331 331 330 331 331 328 329 330 330 329 330 329 328 329 330 330 329 329 328 326 324 323 323 324 324 325 325 326 326 325 325 324 324 324 325
339 340 340 340 338 337 337 336 337 337 336 336 336 335 334 332 333 334 334 333 333 332 331 331 331 330 330 331 332 332 331 331 331 331 331 329 328 329 326 325 325 326 325 325 326 327 329 330 331 331 332 331 331 331 330 329 329 329 330 329 329 330 329 329 330 330 329 329 328 327 326 326 325 325 326 326 325 325 324 324 323 322 322 323 323
339 340 340 340 338 337 337 336 336 336 336 335 336 336 334 333 334 334 334 333 332 331 330 329 329 328 329 330 331 332 332 332 331 331 330 327 326 327 325 325 327 326 327 328 326 328 330 330 332 332 332 331 331 331 330 330 330 328 329 329 329 329 329 329 329 329 329 329 328 327 327 326 326 326 326 326 325 324 323 323 323 322 321 320 320
339 339 339 340 339 338 338 337 337 336 336 336 336 336 335 333 334 335 334 333 331 331 329 328 328 328 328 329 330 331 331 330 330 330 328 326 325 326 326 327 329 327 328 328 327 329 330 331 333 331 330 330 330 331 330 330 330 328 329 330 330 329 329 329 329 329 329 329 328 328 327 327 326 326 325 325 324 323 324 323 322 320 319 318 318
339 339 340 340 339 339 338 338 337 337 336 336 337 336 335 334 334 334 333 332 331 331 330 329 328 328 329 329 329 329 328 326 326 328 328 327 326 327 328 329 330 328 326 326 327 330 331 332 332 329 328 331 330 330 330 330 330 329 330 330 330 329 329 329 329 329 329 328 328 328 327 326 325 325 325 325 324 324 325 323 321 320 318 319 319
337 340 340 340 339 339 339 338 337 337 337 337 337 336 335 335 333 333 333 332 331 331 330 330 329 329 329 330 329 328 327 325 324 326 328 327 326 328 328 327 329 329 326 326 327 329 332 332 331 330 330 331 330 329 329 329 330 330 330 329 329 329 329 329 329 329 328 327 327 327 326 325 325 326 325 325 324 325 325 324 324 322 320 319 319
334 339 340 340 339 339 339 338 337 337 337 337 337 336 335 335 333 333 332 331 331 331 331 330 330 329 329 330 328 327 327 325 324 326 327 326 326 328 328 326 328 328 327 328 328 328 330 331 331 332 331 330 330 330 329 330 330 329 330 330 329 329 329 329 328 327 327 327 326 326 326 325 326 326 325 325 325 326 326 325 325 324 322 320 319
331 338 340 339 339 339 338 339 338 338 338 337 337 337 335 335 334 332 332 331 331 331 331 330 329 329 329 329 328 327 326 326 325 326 327 326 327 328 327 327 329 328 327 328 328 329 329 329 330 330 330 330 330 330 330 330 330 329 329 330 330 329 328 329 328 327 327 327 326 326 327 326 326 326 326 326 326 326 326 326 325 323 320 318 317
330 337 339 338 338 338 338 339 339 338 338 337 337 337 335 334 334 332 331 331 331 332 331 330 329 329 329 329 328 327 327 327 326 326 327 327 327 327 327 328 329 327 327 327 326 328 329 329 330 329 328 329 329 330 330 329 329 328 328 329 329 329 328 328 328 328 328 327 327 327 327 326 326 325 326 326 326 327 326 325 324 323 320 317 316
329 334 337 338 338 336 336 338 339 338 338 337 337 336 335 335 334 333 332 331 332 332 331 330 330 329 329 329 329 328 328 327 326 327 327 327 327 327 327 328 327 326 327 327 325 327 329 329 329 328 327 327 328 329 330 329 327 327 328 328 328 328 328 328 328 328 328 327 327 327 327 326 325 325 325 325 325 325 325 324 324 323 322 320 318
327 331 337 339 336 333 333 336 337 338 338 337 337 335 335 335 334 333 332 332 332 331 331 330 330 329 329 329 329 329 327 326 326 327 327 326 326 326 327 327 325 324 326 327 327 328 328 329 328 327 327 327 326 328 329 328 327 328 327 327 327 328 327 328 328 327 327 327 327 328 327 326 325 325 325 325 324 324 323 323 324 323 322 321 320
327 331 338 337 333 329 329 330 332 337 338 337 336 335 335 335 334 334 333 332 332 331 330 329 329 329 329 329 329 328 327 326 326 326 326 325 325 325 324 324 323 323 324 326 329 329 328 327 327 328 328 327 327 327 327 328 329 329 328 326 326 327 326 327 328 328 328 327 327 327 327 325 324 324 324 324 324 322 321 321 322 322 322 323 320
331 334 338 334 330 329 329 330 331 336 337 337 337 336 335 335 334 333 333 333 331 330 329 328 328 329 329 329 329 328 327 326 325 326 326 326 326 324 323 323 324 325 323 325 329 329 328 326 325 328 329 328 328 328 326 327 329 328 328 327 326 326 326 326 327 327 328 327 326 326 325 324 323 323 323 323 322 320 318 320 320 319 320 320 316
335 336 337 332 331 329 329 333 334 333 335 336 336 336 335 335 334 334 333 332 330 329 329 328 328 328 328 328 328 328 326 325 325 326 326 327 327 327 326 325 327 327 325 326 328 329 329 326 326 328 329 329 329 328 326 326 327 327 328 327 327 326 326 325 326 326 326 326 326 325 323 323 323 322 322 322 320 318 319 319 319 317 317 315 310
337 338 337 332 331 329 328 333 336 332 332 335 336 336 335 334 334 333 332 330 329 329 329 327 327 328 327 327 327 327 325 325 326 327 327 328 328 328 328 328 329 329 327 326 327 329 329 327 327 328 328 328 328 328 326 326 327 327 327 327 327 327 326 326 327 326 326 326 326 323 321 322 323 322 322 321 319 320 321 321 320 318 316 313 309
340 340 335 331 332 330 326 329 335 335 331 334 336 335 335 334 333 332 330 329 329 329 329 327 327 327 326 325 326 326 326 326 327 328 329 329 329 329 328 328 329 328 328 327 327 328 328 327 328 328 328 327 327 327 326 325 326 327 327 327 327 327 327 327 327 327 326 326 326 323 321 321 322 322 321 320 319 320 322 322 320 319 316 313 309
340 338 334 331 329 329 327 328 335 336 334 334 335 334 334 334 333 332 330 329 329 328 328 327 327 327 325 325 327 327 328 328 328 328 329 330 329 329 329 329 329 328 329 329 328 328 329 328 328 328 328 328 328 328 327 326 327 327 327 327 327 327 327 327 327 327 326 326 325 324 321 321 322 321 320 319 318 319 321 321 320 318 316 313 309
Wind_Speed
20 21 20 21 20 21 22 22 22 22 23 22 21 22 21 20 20 18 17 17 17 18 20 21 20 20 20 20 19 19 20 19 19 18 18 17 17 17 16 16 16 16 16 16 17 16 17 18 20 21 20 20 20 20 20 20 21 22 24 24 25 25 23 21 21 21 21 22 22 22 21 20 19 18 19 18 18 18 18 18 18 18 19 19 18
22 22 21 21 20 20 21 22 22 23 23 22 21 22 21 20 20 19 18 18 17 18 19 20 19 19 19 19 19 19 19 19 18 17 17 17 16 16 16 16 16 17 16 16 16 16 17 18 20 21 21 22 22 22 22 21 22 24 24 24 24 25 25 23 21 21 20 21 22 22 21 20 19 19 18 18 18 18 18 17 17 18 19 18 17
21 22 22 21 19 20 20 21 22 22 23 22 21 21 21 20 19 19 18 17 18 18 18 19 18 18 18 18 18 18 18 17 17 16 17 16 16 16 16 16 17 17 17 17 16 16 17 19 19 20 22 23 23 23 23 23 24 25 25 25 25 25 24 23 22 21 19 18 19 20 21 20 19 18 17 16 16 17 16 16 16 17 16 16 15
20 22 22 22 20 19 20 21 21 22 23 22 21 21 21 20 20 19 18 17 18 18 17 17 17 17 17 17 17 17 17 16 16 16 16 15 16 16 16 16 17 17 17 17 17 17 17 18 19 21 24 24 24 25 26 26 27 27 27 26 26 26 24 24 22 20 18 17 16 15 17 18 17 16 15 14 14 14 13 13 13 13 13 12 13
18 22 22 22 21 19 20 21 21 22 23 23 22 21 21 20 20 19 19 17 17 17 17 16 15 15 16 16 16 16 16 15 15 15 15 15 15 16 17 16 16 17 17 17 17 17 17 17 19 22 25 25 26 27 28 28 28 28 26 24 24 23 22 22 21 19 16 14 13 12 11 12 14 13 12 11 11 11 10 10 10 9 9 9 9
17 22 22 22 21 20 20 20 21 22 23 23 22 21 21 20 19 19 19 18 17 17 16 15 14 13 14 15 15 15 14 14 14 14 14 14 15 16 17 16 16 16 17 17 16 16 16 17 19 22 25 26 28 29 29 29 28 27 25 23 21 19 18 16 15 15 14 12 13 12 8 8 10 11 9 8 9 9 8 8 7 6 6 6 6
18 22 22 22 21 21 19 19 20 22 23 23 22 21 21 20 19 19 19 18 17 16 16 15 13 13 13 13 14 13 13 13 13 13 13 14 15 16 16 16 16 15 16 16 16 15 15 17 19 22 24 26 30 30 29 29 28 27 25 23 21 19 17 13 9 9 11 11 11 12 8 6 8 10 9 8 8 9 9 9 8 7 6 7 6
22 24 22 22 21 20 19 19 20 22 23 23 22 21 20 20 19 19 19 18 17 16 15 14 13 12 12 12 12 12 11 11 11 11 13 14 16 16 16 16 15 14 15 15 14 13 14 16 20 22 24 27 30 29 29 29 28 26 25 24 23 20 17 14 10 9 10 8 9 10 8 6 7 10 12 12 11 10 10 11 11 11 11 11 11
25 25 22 22 20 20 19 19 20 21 22 22 22 21 20 19 19 19 18 18 17 16 15 14 13 12 12 11 11 11 10 9 9 11 13 14 16 17 15 15 14 13 14 13 13 12 14 17 19 22 24 27 29 28 28 27 27 26 25 24 24 21 17 14 12 9 9 7 7 8 8 6 7 11 14 14 12 11 12 13 14 15 15 16 17
26 24 22 21 19 19 19 19 20 21 21 21 21 20 20 19 19 18 18 18 17 16 15 14 13 13 12 11 10 10 9 8 8 11 14 14 16 17 14 13 12 12 12 12 12 12 14 17 19 22 24 27 28 27 26 26 26 25 23 23 21 19 15 13 12 10 8 6 4 5 7 8 10 13 14 12 13 15 15 15 16 17 18 19 19
24 21 21 20 18 18 18 19 19 20 21 20 20 20 20 19 19 18 18 17 17 15 14 14 13 12 12 11 10 9 9 8 8 11 14 14 15 15 14 13 12 12 11 11 11 12 14 16 19 22 24 26 27 26 25 26 25 24 23 21 19 16 13 11 11 9 7 5 1 4 7 10 13 15 14 13 16 17 17 17 18 19 19 19 19
19 19 20 19 18 18 18 18 18 19 19 19 20 19 19 19 18 17 17 17 17 15 13 13 12 12 12 12 10 9 9 9 9 10 12 13 14 14 13 13 12 12 11 10 11 12 14 16 18 21 24 26 26 25 25 26 25 24 23 21 18 15 13 10 9 7 4 3 2 5 9 13 14 15 15 16 17 17 17 18 19 19 19 18 18
15 17 19 18 18 18 17 17 17 18 18 18 19 19 19 18 18 17 17 17 16 15 13 12 11 12 12 12 10 9 9 9 9 9 11 12 13 13 12 11 11 11 10 10 11 12 13 15 18 21 24 26 26 27 27 27 25 23 22 20 18 15 11 8 8 7 5 4 6 8 12 14 16 16 15 16 17 17 17 18 19 19 18 18 18
12 17 20 19 19 18 18 17 17 17 17 17 17 18 19 18 18 17 16 16 16 15 13 12 11 11 11 11 11 10 9 9 9 9 11 12 13 13 10 9 9 10 10 10 11 11 12 14 17 20 24 26 27 28 28 26 25 23 21 19 17 13 10 8 5 6 7 7 9 11 13 16 16 16 16 16 17 17 17 17 17 18 17 17 17
10 16 20 19 20 19 17 17 17 17 16 16 16 17 17 18 17 17 17 17 16 15 13 12 11 11 11 11 10 9 9 9 9 10 11 13 14 13 11 9 9 8 9 10 11 12 12 13 16 19 23 25 27 28 27 26 25 23 20 17 14 10 7 8 4 3 7 9 10 12 14 15 16 15 16 16 16 16 16 16 17 17 17 16 16
10 14 20 20 21 21 18 17 17 17 16 15 15 15 16 16 16 17 17 17 16 14 13 12 11 11 10 10 9 9 9 10 10 11 12 13 14 14 11 10 9 8 10 11 12 13 12 13 14 17 21 23 25 26 26 25 24 22 20 16 13 8 5 6 5 6 9 10 11 12 13 14 14 15 15 15 15 15 16 16 16 16 16 16 16
10 13 19 20 21 21 20 18 17 16 15 14 14 14 14 14 15 16 16 16 15 13 12 12 11 10 9 9 9 9 10 10 10 12 13 13 14 13 12 10 9 8 10 12 12 13 12 12 13 15 18 20 23 25 25 23 23 22 19 15 12 8 5 5 7 9 10 10 11 11 11 12 13 14 14 14 15 15 15 15 15 15 15 15 15
10 13 20 21 21 22 21 19 17 17 15 14 13 13 13 14 14 14 15 15 14 13 12 12 11 10 10 10 10 10 10 10 10 12 13 13 14 12 11 9 9 9 11 12 13 13 12 12 12 14 16 19 22 23 23 23 23 22 19 15 11 8 5 4 7 8 8 9 9 10 10 11 13 14 13 13 14 14 13 14 14 14 14 14 14
11 15 21 21 22 22 21 20 18 18 16 14 13 13 12 12 13 13 14 14 13 13 12 12 11 11 11 10 10 11 11 11 10 10 12 13 14 12 10 10 10 10 11 12 12 12 12 12 12 13 14 17 20 20 21 22 22 21 18 14 9 6 4 3 6 7 6 7 8 8 10 11 12 12 12 12 12 12 12 12 13 13 13 13 13
12 18 22 21 22 22 22 20 19 19 18 16 13 12 12 11 11 12 12 13 13 12 12 11 12 12 11 11 11 12 12 12 11 10 11 12 14 13 12 11 11 10 11 12 13 12 11 11 12 12 13 15 17 18 20 21 20 19 16 12 9 5 3 4 6 7 5 6 6 7 9 10 11 11 10 10 10 10 11 11 11 12 11 11 11
12 19 21 21 22 21 22 21 20 19 17 16 14 13 12 12 11 11 12 12 12 12 12 12 12 12 12 12 12 13 13 12 11 10 10 10 12 13 12 11 10 10 11 12 13 12 11 11 12 12 13 14 16 18 20 19 18 16 13 9 6 4 5 5 5 6 4 4 4 6 8 8 9 9 9 9 9 9 10 10 10 10 10 10 10
14 18 19 20 22 21 21 20 20 19 17 16 15 15 13 13 12 12 12 12 12 12 12 13 13 12 12 12 12 13 13 13 12 11 9 8 9 9 9 8 9 10 11 13 13 12 12 11 12 13 14 15 17 18 18 17 17 16 13 8 3 2 4 5 4 5 4 3 4 5 6 7 8 8 8 8 9 9 9 10 9 9 9 9 9
17 18 19 20 21 21 22 21 21 19 16 15 15 16 15 15 14 14 14 13 13 13 13 13 13 13 13 13 13 13 13 12 11 11 9 8 8 7 6 6 8 9 11 13 14 13 13 12 12 13 14 15 16 17 15 15 16 16 13 9 2 2 3 5 5 6 5 2 3 4 5 5 6 6 7 7 8 9 9 9 9 8 8 8 8
19 19 21 20 19 21 24 23 21 17 14 16 16 16 16 16 15 15 14 14 14 14 13 13 14 13 14 14 14 13 12 12 11 11 9 8 8 6 6 6 6 8 11 14 14 13 13 13 12 13 14 14 15 14 13 12 12 14 14 10 4 1 4 6 5 7 6 1 1 2 4 4 4 5 5 6 7 8 8 9 9 8 8 8 9
22 21 22 22 22 24 25 23 20 17 16 17 19 17 16 16 16 16 15 15 15 15 15 14 15 15 15 15 14 13 12 12 12 11 9 8 7 6 6 6 6 7 11 15 15 14 13 13 12 12 13 13 13 12 12 11 10 14 14 9 6 1 6 7 5 7 7 1 1 1 3 4 4 3 3 4 6 7 8 8 8 8 8 9 9
23 24 24 24 25 25 24 22 21 21 19 19 19 18 16 16 16 16 16 17 17 18 17 16 17 16 15 15 15 14 13 13 12 11 10 8 8 7 6 6 5 6 11 15 16 15 13 13 13 12 13 12 11 10 10 10 9 13 12 7 7 5 7 8 6 6 6 1 3 3 3 3 3 3 2 4 5 6 7 8 9 9 9 10 11
25 26 25 25 24 24 23 22 22 22 21 22 21 19 17 17 18 18 17 17 18 18 18 17 17 16 16 16 15 14 14 14 13 12 10 9 9 8 7 7 5 6 10 15 17 16 14 14 13 13 13 11 10 9 9 8 8 12 11 7 8 7 7 8 7 6 4 1 4 4 3 3 2 2 2 3 5 6 7 8 9 10 11 12 12
25 25 24 25 24 24 23 22 23 22 22 23 22 20 16 17 19 18 17 16 17 17 17 17 17 16 16 17 16 14 13 14 14 13 11 10 10 8 7 8 6 6 9 13 15 16 15 14 13 13 12 10 9 9 8 7 7 12 12 8 10 10 9 8 4 4 2 1 3 3 3 2 2 2 2 3 5 6 8 9 11 11 12 13 13
20 22 23 25 26 25 23 22 23 23 22 21 20 18 14 16 17 16 16 15 16 17 17 16 16 16 16 15 14 14 14 14 14 13 12 10 9 8 9 9 8 7 8 11 13 11 12 14 12 11 10 8 7 7 6 6 8 12 13 10 10 10 9 7 3 1 1 0 1 2 2 2 2 3 4 5 6 7 9 11 12 13 13 13 12
16 20 23 24 27 27 23 22 24 23 22 20 18 18 16 17 17 16 15 15 16 17 17 17 16 16 15 15 14 14 14 13 14 14 13 11 10 8 8 9 9 8 8 10 10 7 9 14 12 9 6 5 6 5 4 6 9 13 13 11 9 10 8 5 3 1 2 1 1 2 2 3 4 5 6 8 8 9 11 12 12 12 12 12 12
17 20 22 24 26 26 24 23 23 22 22 20 19 18 19 18 17 17 16 15 16 18 18 17 17 17 17 15 15 15 14 13 14 15 13 12 11 9 8 8 8 9 10 9 8 5 6 11 11 6 6 7 8 7 7 8 11 14 14 9 6 8 8 5 4 1 1 0 2 2 3 5 7 8 9 10 11 12 12 11 11 11 10 10 10
19 19 22 23 24 24 24 23 22 21 21 21 20 18 19 19 17 17 15 15 16 17 17 16 17 17 17 16 15 15 15 14 15 15 14 13 12 11 10 9 7 6 9 11 10 6 6 10 10 8 10 11 10 11 11 11 12 14 14 10 7 6 7 6 6 4 2 2 3 3 5 8 9 9 9 10 11 11 11 10 10 8 7 7 7
20 17 20 22 23 23 23 23 22 21 21 20 19 18 20 19 18 17 15 14 15 16 16 16 17 17 16 16 16 15 16 15 15 16 15 14 13 12 11 10 8 6 9 12 11 10 9 10 11 11 12 12 11 13 14 12 12 14 12 9 9 8 7 8 9 7 6 4 4 5 7 9 9 9 8 9 9 9 10 9 7 6 6 6 5
22 19 18 20 21 22 22 21 21 22 21 19 18 19 19 16 15 16 15 14 14 15 16 15 17 16 15 15 16 16 16 17 16 17 17 15 14 13 12 10 8 8 9 11 12 14 14 12 13 12 12 12 12 13 12 10 11 14 11 8 9 9 8 10 12 9 8 6 5 6 8 8 8 7 7 7 8 9 9 8 7 7 7 6 5
21 21 18 19 20 20 21 20 20 21 21 19 18 18 17 14 14 15 16 15 14 15 16 16 16 15 15 15 16 16 16 17 17 18 17 16 14 14 13 11 10 9 9 11 13 15 15 15 13 13 13 11 10 11 11 11 12 12 10 8 9 10 10 12 13 9 7 6 5 6 7 8 8 7 7 7 7 8 8 8 8 7 7 6 5
17 19 17 18 19 20 19 18 19 21 19 18 17 16 15 12 13 16 16 15 14 15 16 16 16 15 15 15 16 16 17 18 18 18 18 16 15 15 14 12 11 10 11 11 12 14 15 14 13 14 14 11 10 11 11 12 12 11 9 8 10 12 12 12 11 8 7 7 6 6 6 7 7 7 6 6 6 7 8 8 7 7 6 6 6
15 17 16 18 19 20 18 17 18 19 18 17 17 17 14 11 13 16 15 14 13 15 15 15 16 17 16 16 17 18 19 20 19 19 18 16 16 15 14 14 12 11 11 10 12 14 14 13 15 15 12 10 11 10 10 12 12 12 11 11 12 12 12 11 9 7 7 7 7 6 6 5 5 5 6 6 6 7 7 7 6 6 6 7 6
13 16 16 16 18 18 17 17 18 18 17 16 17 16 13 11 13 15 14 14 14 14 15 15 17 17 16 18 19 19 19 19 19 19 17 16 15 14 14 15 15 13 12 11 13 14 13 13 14 12 10 11 11 10 10 12 11 11 12 12 12 11 11 10 8 8 8 8 8 7 5 4 4 5 7 7 7 7 7 7 7 7 7 7 6
13 15 16 15 16 16 16 17 17 17 17 17 17 15 13 13 14 14 14 15 15 15 16 16 17 16 17 19 20 20 19 17 18 19 17 14 14 13 13 14 15 14 14 14 13 14 14 13 12 11 11 10 9 9 12 13 12 13 13 13 11 10 10 9 8 8 8 7 7 7 6 5 6 7 8 7 7 7 7 7 7 8 8 8 7
12 14 16 15 15 15 16 16 15 16 17 18 17 15 15 15 15 17 16 15 15 16 16 17 17 17 19 21 21 20 20 17 17 19 16 14 14 14 14 15 14 14 15 15 14 15 14 12 12 12 12 10 9 10 12 14 15 14 13 11 11 10 9 8 7 8 8 7 7 7 7 7 7 7 7 7 7 7 7 7 7 7 8 8 9
12 12 15 15 14 14 15 16 16 16 17 19 18 17 17 16 15 17 17 15 16 17 17 17 18 19 20 22 21 21 19 17 17 19 17 15 15 15 14 15 15 14 15 14 14 15 14 12 11 11 11 11 12 12 13 15 16 15 14 12 10 10 9 8 7 8 8 8 9 9 8 8 7 6 7 7 7 6 6 6 6 7 8 8 9
13 14 16 16 14 14 14 16 17 17 17 17 17 17 17 16 14 14 15 14 15 16 17 17 18 19 21 22 21 20 19 17 17 19 18 16 16 15 15 15 13 13 14 13 13 14 13 13 11 11 12 11 12 13 14 15 16 15 15 14 12 11 10 10 10 9 9 10 10 10 8 8 8 7 8 8 7 6 6 7 8 8 9 8 9
16 16 17 17 15 15 14 15 17 17 16 15 16 17 16 15 14 13 14 14 14 14 14 15 16 18 20 21 21 20 19 17 16 18 17 17 16 15 16 14 12 11 12 13 12 12 12 12 11 11 12 12 12 13 15 15 15 15 15 15 14 14 13 12 12 11 11 11 11 10 10 10 10 11 11 8 7 6 6 7 8 8 8 8 8
17 18 19 20 19 17 14 14 15 15 15 15 15 16 16 15 14 14 14 14 14 14 14 14 15 18 21 22 22 21 19 17 16 17 16 16 15 14 15 14 11 10 12 12 11 10 11 11 11 11 11 12 14 15 16 15 14 15 17 15 15 16 16 15 16 14 13 12 11 11 12 12 12 13 11 8 6 4 5 6 6 7 7 7 7
17 20 23 24 20 17 15 13 13 15 15 15 16 17 18 18 17 17 17 16 16 16 17 16 16 19 22 22 22 22 20 18 17 17 17 15 13 12 12 13 12 11 12 12 11 10 11 11 12 12 13 14 15 16 17 16 14 15 17 16 15 15 17 19 18 15 12 11 11 11 13 14 13 12 11 8 5 2 4 7 7 6 5 6 7
18 22 26 25 20 17 16 15 15 17 17 16 18 20 21 21 21 21 20 19 17 18 18 18 18 19 22 23 23 22 21 19 18 17 16 14 12 11 12 13 13 12 13 12 11 10 11 12 13 14 15 16 15 16 18 18 17 17 17 17 16 14 18 22 19 15 12 11 12 13 14 15 13 13 12 8 4 3 5 8 7 5 5 6 5
21 24 27 25 21 19 18 18 18 18 19 19 20 21 22 21 21 20 20 19 17 18 18 17 18 19 21 22 22 22 21 19 17 15 14 12 12 12 12 12 12 12 13 13 11 11 11 11 13 15 16 16 16 17 19 19 19 20 18 18 16 13 18 22 21 19 17 15 15 16 16 15 14 14 12 8 6 4 6 7 6 4 4 4 4
25 27 28 26 23 22 20 20 20 17 18 21 22 22 22 21 20 19 18 17 16 18 18 17 18 19 19 20 21 21 21 18 16 14 12 11 12 11 10 12 14 14 13 12 12 11 12 12 12 15 16 16 16 17 19 19 20 20 20 19 15 12 17 20 19 19 21 22 19 16 13 12 13 15 12 8 5 7 8 7 5 4 3 4 4
26 27 26 25 25 25 22 22 21 17 18 22 23 23 21 21 21 19 18 18 17 18 19 19 20 20 19 19 21 21 20 18 16 14 12 11 11 10 10 12 15 14 12 12 12 12 13 13 13 15 15 14 15 16 18 19 19 20 20 19 15 14 19 19 16 17 19 24 22 16 13 12 15 15 12 8 7 8 8 6 4 3 4 4 4
23 25 26 27 28 27 24 25 25 22 20 22 24 24 22 21 22 20 20 22 20 21 22 21 22 21 20 19 19 19 18 17 16 13 11 11 10 9 10 12 13 12 12 12 13 13 13 12 12 15 14 14 15 17 18 18 19 20 20 18 16 18 21 20 18 18 19 22 22 19 16 18 21 17 11 10 9 8 8 6 4 3 2 2 4
20 25 28 29 28 27 26 26 26 24 22 21 22 24 23 23 23 23 23 25 24 24 25 24 23 21 20 19 17 17 16 15 14 13 12 11 11 10 10 12 12 13 13 13 13 13 12 11 12 14 14 14 15 17 18 18 20 22 20 17 15 18 21 21 21 20 19 20 21 22 20 20 22 18 13 13 10 9 11 9 5 2 2 1 5
Wind_Direction
165 162 162 157 155 148 145 144 144 145 143 144 144 145 142 137 132 130 128 127 130 133 139 140 138 138 137 135 132 130 127 124 122 121 118 115 111 107 104 101 98 95 92 92 95 103 96 96 110 111 110 109 104 103 101 100 101 101 94 87 83 81 81 83 87 91 94 95 95 94 93 93 92 92 92 93 94 93 92 92 92 89 86 84 84
163 163 162 156 156 149 146 144 145 146 144 147 148 148 146 140 136 133 132 130 131 132 137 141 140 140 140 137 135 132 128 126 125 124 121 117 113 111 109 104 100 97 94 93 94 96 93 95 109 112 111 110 105 105 104 104 105 102 95 87 82 79 80 80 81 87 92 95 97 97 94 93 92 93 92 93 94 93 92 93 93 89 87 86 87
165 162 160 155 156 151 146 145 145 146 147 149 151 152 149 144 140 138 135 133 132 131 134 140 141 140 142 140 138 135 132 129 128 127 124 120 118 117 113 108 102 100 97 94 93 94 93 95 102 107 110 109 107 106 104 103 102 97 91 86 82 82 83 82 80 82 86 89 93 97 98 98 96 96 96 96 95 95 95 94 94 93 92 91 89
170 164 160 156 155 153 147 145 146 148 149 151 155 155 152 148 143 141 139 135 133 131 132 137 141 141 143 143 141 138 136 134 132 131 128 125 124 122 116 112 108 103 100 97 94 93 92 93 100 107 111 110 108 106 104 103 98 93 87 82 80 81 82 81 81 81 82 80 79 85 93 99 100 98 97 98 98 96 96 94 94 94 96 95 93
172 167 160 156 154 152 148 145 147 148 151 154 157 159 155 151 147 145 142 139 134 131 130 132 138 141 144 145 145 142 140 139 136 134 133 133 132 126 121 116 112 106 101 97 94 93 93 95 99 106 110 111 109 108 107 104 97 91 86 81 78 78 78 77 77 74 73 78 73 65 74 88 96 98 93 93 95 93 90 87 89 95 96 92 91
171 170 162 157 155 152 149 147 148 150 153 156 160 161 158 153 151 148 146 143 137 133 130 129 134 139 145 146 147 146 143 143 140 138 138 140 139 130 125 120 114 109 102 96 91 91 94 99 102 105 109 111 111 110 108 103 96 91 86 81 77 75 75 74 72 62 55 62 66 60 67 80 83 90 88 88 88 81 77 72 76 86 92 88 83
174 173 165 159 156 152 151 148 149 152 155 159 162 163 160 157 154 152 150 147 142 137 132 130 132 136 143 146 148 147 146 147 145 144 144 146 144 134 127 122 118 111 101 94 90 90 94 101 106 108 110 113 113 112 109 103 97 92 86 81 77 75 74 79 79 69 59 50 57 61 70 81 70 75 77 80 82 75 73 71 74 77 82 84 77
174 171 165 159 157 153 151 151 152 155 158 162 164 164 162 159 158 156 154 151 148 142 136 134 133 136 139 143 147 148 149 150 148 150 151 151 147 137 131 126 122 112 101 97 96 96 97 102 108 111 112 115 117 114 111 105 100 94 88 84 82 82 81 83 81 86 101 81 57 53 56 72 65 72 76 77 82 80 77 76 78 79 81 80 77
171 166 162 159 158 154 152 155 156 158 160 163 165 165 163 162 161 159 158 155 152 148 143 139 137 137 139 143 148 152 152 151 149 154 156 154 150 142 136 132 125 115 108 106 106 105 103 105 110 114 116 119 121 118 114 109 104 100 94 90 88 91 91 88 85 92 117 104 64 46 45 68 74 79 80 78 84 86 82 79 82 82 81 79 76
169 162 159 159 159 156 155 157 158 160 161 164 166 166 165 165 164 162 160 159 157 154 148 144 141 140 142 145 150 155 154 153 149 156 159 156 151 144 143 138 127 117 111 109 110 111 109 109 112 117 120 123 124 121 117 113 110 107 101 97 95 100 101 98 103 113 130 125 89 40 47 79 85 83 81 78 83 86 82 78 81 81 79 76 74
166 159 158 160 160 156 155 157 158 159 160 163 166 166 167 166 166 164 162 162 160 158 153 147 146 145 146 148 150 154 156 156 152 158 160 154 148 143 144 142 130 122 115 116 116 114 114 115 116 120 124 126 127 124 119 117 114 110 104 102 104 108 107 104 108 122 149 154 132 29 65 88 86 84 83 81 83 83 80 76 76 77 76 74 73
161 160 159 160 159 154 153 154 154 156 157 161 164 165 168 167 168 166 164 164 163 161 157 152 151 152 151 153 154 156 158 159 155 157 155 148 144 138 139 141 133 128 125 127 125 120 121 120 118 122 127 129 129 126 121 118 112 109 106 106 109 110 109 105 98 104 144 146 66 66 89 92 87 88 86 83 83 81 79 78 76 76 76 74 74
154 160 163 161 156 151 150 150 150 151 154 158 161 165 168 169 169 168 165 165 166 165 161 159 159 159 158 158 159 157 155 159 158 154 148 140 136 129 130 137 135 135 137 136 131 125 125 122 118 122 128 131 131 127 121 116 111 108 106 105 106 110 112 102 77 63 72 79 72 86 95 90 87 88 85 83 82 80 79 78 78 78 77 75 74
152 158 163 161 153 148 148 148 146 146 151 155 159 164 167 169 169 168 167 168 169 168 165 166 167 165 164 163 164 158 155 161 160 155 146 137 132 124 126 139 145 150 150 143 134 128 126 122 120 122 128 132 131 126 120 115 113 109 105 104 106 112 111 96 63 31 56 75 80 90 94 91 90 87 85 83 82 81 80 79 80 80 78 77 76
160 159 164 160 150 144 145 145 143 145 149 152 155 161 165 167 169 169 170 172 172 172 170 172 175 172 170 168 170 162 158 161 156 154 146 141 137 131 139 156 164 167 158 148 138 132 129 125 123 126 130 132 130 124 120 117 113 107 102 103 109 113 107 98 78 38 72 82 86 90 92 92 91 89 87 86 85 82 81 81 82 82 80 78 77
170 164 165 158 148 142 141 141 141 144 147 150 153 156 161 165 169 173 174 175 175 176 175 177 181 178 175 172 172 166 161 160 154 149 146 146 143 142 157 170 175 175 161 152 143 137 133 127 125 129 133 132 129 124 120 117 111 105 102 105 112 114 105 100 88 78 81 81 87 90 92 93 93 91 89 88 88 86 84 84 84 84 83 80 79
178 173 166 156 147 141 139 141 140 140 145 148 150 152 156 162 166 172 175 177 178 178 178 179 183 184 180 175 169 163 158 156 154 148 146 150 150 154 169 179 181 172 162 155 148 141 134 131 127 129 134 132 129 125 121 117 113 108 106 108 114 119 113 91 75 76 79 81 91 94 95 96 93 92 90 89 90 90 89 88 87 87 85 83 82
183 179 168 155 145 140 138 139 137 135 141 144 149 152 154 159 161 167 171 176 178 178 179 181 186 186 178 173 165 157 153 152 155 157 155 158 161 167 175 184 185 170 164 160 151 144 137 133 126 124 130 133 131 128 124 120 117 114 109 110 118 129 129 88 61 64 74 85 96 98 99 97 95 94 92 91 91 92 92 90 89 88 87 85 83
179 174 166 155 144 139 138 135 134 134 138 141 147 153 156 159 160 164 168 173 175 176 180 183 186 182 175 171 161 154 154 151 154 163 168 172 176 180 182 186 185 170 166 164 156 147 140 134 124 119 123 135 136 131 128 124 121 120 118 121 133 147 146 100 56 48 64 86 99 103 102 99 99 98 94 94 92 91 90 88 87 85 85 84 83
170 169 162 150 142 138 137 134 133 135 138 139 145 152 158 162 163 166 167 169 171 177 183 183 184 180 177 169 159 156 157 157 157 160 168 180 186 191 191 188 183 173 170 169 163 152 144 136 125 117 116 131 139 135 131 126 122 120 121 129 140 141 98 58 38 28 53 86 102 108 107 105 103 101 96 94 91 88 86 84 83 81 80 80 80
156 162 157 146 141 138 136 134 132 133 135 137 143 150 157 164 167 168 168 171 174 182 186 182 183 180 176 168 162 162 161 162 162 159 164 174 186 193 194 190 182 177 176 174 169 160 151 141 129 119 113 122 134 136 131 124 119 114 115 122 132 119 61 25 1 8 42 77 92 108 110 110 106 105 102 96 91 86 83 80 79 79 78 79 78
146 150 155 147 140 139 137 135 132 130 131 135 142 148 155 164 165 168 170 176 179 186 186 183 183 179 175 171 170 168 166 167 163 165 168 164 169 184 189 184 179 177 178 177 174 167 157 148 137 127 118 120 129 132 127 120 115 112 109 109 108 76 45 12 0 18 40 65 76 99 104 107 108 107 105 99 94 87 83 79 77 77 75 76 76
150 146 151 150 145 145 142 136 133 130 134 140 146 149 153 158 163 169 173 177 181 185 186 186 185 180 176 177 179 174 173 173 167 169 171 163 159 168 180 178 178 176 177 179 177 169 161 154 146 137 128 126 130 130 127 122 119 115 110 118 126 9 357 340 10 25 23 59 75 90 95 98 104 104 104 98 92 87 84 81 77 75 73 73 72
158 150 150 159 162 156 148 144 143 142 148 151 150 152 154 158 166 172 174 179 182 184 188 189 187 187 185 185 186 182 180 178 174 175 174 170 168 175 187 190 187 180 179 180 178 170 161 158 154 147 138 133 135 134 133 128 122 119 112 125 147 10 314 313 352 11 7 44 104 88 94 89 95 100 101 96 91 89 87 86 83 80 78 75 74
165 164 158 163 167 164 158 159 160 155 159 158 152 152 155 163 172 175 177 182 184 189 193 190 187 192 193 190 188 184 185 185 180 176 175 175 179 185 189 195 193 185 183 180 178 174 164 160 158 152 148 143 143 141 138 130 120 122 115 123 149 205 279 295 327 350 356 44 124 95 103 88 92 96 103 102 94 93 91 90 89 87 86 83 81
175 174 164 160 164 171 170 169 165 159 163 164 158 156 158 166 172 176 180 185 190 194 195 192 191 193 195 195 193 188 190 192 187 178 177 175 176 179 177 190 195 187 186 180 178 177 171 166 162 159 158 156 156 150 145 139 129 131 125 125 154 193 253 274 296 325 341 60 108 96 108 92 88 88 102 110 102 101 97 95 94 93 91 87 83
180 170 162 162 166 172 173 172 165 162 166 166 164 160 162 167 168 176 182 186 191 194 194 195 196 196 197 199 200 198 195 195 193 188 183 176 173 176 179 186 185 178 184 183 181 179 176 172 169 168 167 170 169 158 156 155 147 147 142 143 159 175 219 249 279 306 318 104 111 101 107 103 94 91 100 115 116 111 103 100 100 98 93 88 84
175 166 165 166 171 174 171 172 165 164 171 171 168 162 165 171 170 175 182 186 189 191 195 198 201 201 200 202 204 204 201 199 199 197 190 181 176 183 189 177 151 154 177 181 181 180 180 178 177 178 176 181 175 160 165 173 168 161 161 169 157 157 189 213 262 303 303 119 107 104 106 105 103 115 126 124 120 113 109 108 104 98 91 87 84
172 172 174 171 176 178 172 169 166 168 176 177 172 166 169 173 172 175 180 183 187 193 197 202 206 206 204 204 205 204 203 204 203 200 194 188 185 190 187 169 144 138 162 171 167 169 179 178 177 182 181 187 180 168 181 195 188 179 183 198 178 172 196 201 203 307 305 338 64 88 82 76 92 112 123 119 116 114 112 111 104 96 90 87 85
186 181 177 173 178 179 173 168 169 175 181 183 181 175 174 174 176 177 179 180 186 195 198 203 208 211 211 206 206 206 204 206 204 201 196 190 188 185 175 162 150 138 150 167 152 145 182 177 165 168 182 213 212 204 225 218 202 194 200 217 203 188 198 205 200 299 311 300 37 30 38 61 87 102 109 111 110 112 112 110 103 95 88 83 79
201 186 179 176 178 179 174 170 173 181 186 189 186 179 176 178 180 180 181 181 187 197 200 206 212 213 212 208 210 209 207 208 205 203 195 188 182 170 159 154 154 143 142 161 154 146 186 170 155 168 207 228 229 232 241 221 205 200 203 214 203 181 183 206 220 246 298 160 66 40 70 87 96 102 106 111 112 112 110 104 94 85 77 71 68
199 182 181 181 181 180 176 173 175 182 185 187 186 179 179 182 184 185 187 186 190 199 203 208 211 209 209 211 212 210 208 205 202 202 194 187 178 163 157 155 160 153 149 160 164 177 185 165 168 193 209 220 232 235 224 207 200 197 196 197 195 182 174 197 212 211 217 162 108 99 104 103 103 105 109 113 114 109 104 95 85 78 72 68 66
191 177 179 180 183 182 178 175 171 178 185 188 187 179 182 187 186 189 194 192 192 199 204 206 205 205 209 211 210 208 206 201 199 197 191 186 179 170 168 167 169 176 178 173 171 186 189 179 189 197 204 218 230 223 208 196 199 201 198 191 192 187 173 193 202 203 205 174 132 119 116 115 113 112 112 110 108 102 98 98 95 90 86 79 77
194 186 180 176 182 184 181 177 167 175 188 191 190 183 187 192 188 192 199 200 198 203 207 206 205 207 211 210 207 206 203 200 196 191 188 187 185 183 185 187 186 188 194 191 184 190 193 191 198 204 214 222 225 220 212 207 207 207 204 189 187 182 175 193 192 188 194 178 151 135 126 124 121 115 111 106 103 102 101 103 101 96 91 83 78
201 196 187 174 180 186 185 181 169 174 188 188 188 188 189 193 195 200 203 202 202 207 212 210 210 211 213 211 205 204 201 197 193 192 192 192 195 197 195 196 197 194 196 196 192 194 196 197 200 210 218 217 215 220 222 220 210 202 198 187 183 173 170 186 182 173 178 174 160 144 132 127 120 113 110 108 105 103 103 101 96 90 85 82 80
216 204 189 175 181 190 188 183 174 177 187 184 184 189 188 191 201 203 203 203 202 208 213 214 214 211 212 212 205 201 198 195 195 197 196 196 204 206 201 199 199 197 196 193 191 192 193 195 203 212 214 209 209 221 224 216 203 193 188 180 173 167 169 179 177 176 177 172 163 151 144 131 119 113 114 115 111 105 102 97 90 86 83 83 84
228 213 192 176 182 190 189 187 179 179 186 186 186 187 185 193 204 204 204 207 209 209 206 209 210 207 207 205 201 199 196 196 196 198 203 209 214 206 195 194 195 194 193 191 191 195 193 192 206 213 215 215 213 217 216 206 196 194 192 176 162 158 168 177 175 180 184 180 174 165 158 135 117 119 127 127 120 111 100 89 84 87 84 82 83
222 217 202 184 186 189 190 190 182 180 184 187 190 187 183 192 203 208 210 208 209 209 203 203 204 204 204 199 196 193 194 199 200 203 212 217 213 203 195 194 194 193 195 196 194 200 201 198 209 217 218 220 210 196 198 200 192 188 183 167 158 157 164 171 173 179 184 187 187 179 169 148 131 127 131 131 125 115 97 82 82 83 81 82 82
210 212 208 196 194 192 191 193 187 183 181 181 189 190 183 185 194 205 211 209 209 209 203 200 201 204 205 197 193 191 196 208 209 208 212 208 200 197 200 203 201 196 199 203 199 202 208 207 211 214 212 208 201 195 192 188 178 174 171 157 158 164 160 163 174 183 185 187 189 184 171 158 144 129 125 125 123 115 99 90 86 83 80 82 83
204 206 206 201 198 193 192 192 191 190 182 178 187 190 183 182 191 198 202 209 212 207 201 202 205 207 205 198 195 197 205 216 210 204 204 198 198 201 203 211 212 201 202 207 204 205 212 216 212 206 205 192 185 196 191 183 174 169 168 161 161 165 161 169 179 181 180 180 183 179 169 158 146 132 124 123 124 114 107 103 90 86 85 81 83
201 206 202 195 191 189 194 193 190 194 186 181 186 188 185 182 191 198 199 204 208 204 201 204 203 203 204 202 201 201 207 214 203 196 199 196 200 205 204 210 212 203 203 207 207 209 215 225 220 204 204 196 185 188 190 190 183 172 166 160 158 163 167 171 173 177 175 172 172 169 164 156 147 137 123 120 124 115 112 109 93 92 94 87 87
191 201 192 185 184 182 196 199 191 192 191 189 186 186 188 187 189 199 200 196 200 208 206 199 195 200 204 203 203 200 201 205 196 193 200 200 202 206 204 205 205 204 205 207 209 212 216 223 219 205 203 199 188 187 190 189 185 183 177 162 155 159 167 167 167 174 172 166 166 162 157 154 146 133 123 124 129 122 114 108 101 101 101 95 90
187 193 185 186 186 178 191 203 197 193 193 192 188 186 190 189 185 192 197 190 194 208 205 194 194 200 203 202 201 199 197 198 192 192 199 201 201 204 206 202 199 205 205 204 209 213 218 219 211 207 205 197 193 190 188 188 189 189 181 171 167 163 163 169 170 173 175 170 167 162 155 152 139 125 121 127 128 122 117 113 111 112 107 100 93
181 186 190 199 192 178 181 195 203 202 193 188 189 190 189 187 183 186 193 190 189 197 199 198 201 202 201 200 199 197 197 196 191 194 199 200 199 203 208 202 201 211 204 202 211 216 221 218 210 210 207 201 199 192 188 195 197 190 180 172 170 168 167 171 171 170 173 170 165 161 149 140 134 127 128 133 126 121 131 129 125 125 118 108 103
184 188 195 202 194 183 177 183 205 208 196 190 188 188 185 181 180 180 185 187 188 193 197 200 202 199 197 197 198 195 195 195 194 197 200 201 202 206 208 205 209 217 209 205 211 216 218 217 213 211 207 205 204 197 192 196 197 194 190 176 166 174 176 171 169 169 167 163 163 162 148 137 135 134 135 139 137 153 163 148 142 140 126 111 109
189 189 192 195 197 196 184 181 199 205 202 199 193 188 185 183 182 180 182 187 189 191 194 197 196 193 191 193 196 193 191 191 192 196 198 200 204 208 208 208 210 216 216 210 209 212 213 212 212 209 206 204 205 203 195 193 190 189 196 190 180 184 180 170 168 166 159 159 160 153 145 140 137 136 142 163 196 219 179 163 163 154 128 117 117
182 185 188 191 201 203 191 186 191 198 202 203 200 194 190 190 188 185 188 192 192 190 187 190 192 187 182 187 190 189 190 190 190 194 198 202 206 209 209 205 204 213 219 213 208 210 207 205 206 205 206 203 202 204 197 193 189 185 191 196 193 190 182 176 173 165 154 149 148 143 142 145 143 146 162 189 205 185 168 167 169 155 130 132 131
179 185 192 195 200 199 196 193 190 195 202 200 201 200 195 194 189 188 194 194 191 187 181 182 186 182 179 182 185 187 189 191 193 196 199 205 206 205 205 201 199 206 216 212 206 204 200 200 199 197 203 204 201 201 200 197 191 187 188 192 193 185 181 184 182 173 157 145 143 140 143 157 157 160 178 184 154 149 151 149 149 135 121 135 135
180 187 197 199 196 193 196 198 194 201 205 196 198 201 198 196 190 188 188 185 185 181 176 176 176 176 176 178 181 185 188 191 194 195 195 197 200 201 202 204 202 201 209 210 202 200 197 195 194 194 199 201 198 198 201 201 194 191 190 189 189 178 175 181 183 180 164 150 149 146 148 164 161 165 185 174 138 143 146 145 154 128 108 123 139
186 190 196 195 191 190 196 201 197 199 203 194 194 199 195 190 188 185 179 175 178 177 172 172 172 173 174 175 179 182 184 188 190 189 189 189 191 194 195 203 204 199 206 207 197 196 194 188 189 193 196 196 194 196 199 199 194 194 193 190 188 179 175 179 181 181 170 159 157 154 155 166 164 163 173 163 147 152 164 179 182 144 88 111 141
200 196 193 192 191 192 197 203 198 195 199 193 192 197 190 184 184 182 177 173 174 174 171 171 172 175 176 175 178 179 178 183 185 181 182 184 182 180 184 194 195 192 197 195 186 187 188 187 189 189 193 195 193 195 197 197 196 195 193 191 189 186 184 183 182 182 177 170 164 160 160 166 168 166 163 159 152 154 175 190 192 217 304 103 140